Location: Spondin
(51.8528°N, 111.6118°W)
Time: 18:48:47
(UTC+00:00)

Vanguard 2 Rocket - Pass Details

Date: 28 May 2022
Orbit: 553 x 3323 km, 32.9° (Epoch: 02 July)

Event Time Altitude Azimuth Distance (km) Brightness Sun altitude
Rises 23:57:21 0° 260° (W) 7,003 12.6 29.9°
Reaches altitude 10° 00:03:18 10° 251° (WSW) 5,653 12.4 29.0°
Maximum altitude 00:15:39 29° 202° (SSW) 3,365 10.3 27.1°
Drops below altitude 10° 00:23:59 10° 147° (SSE) 3,738 9.8 25.8°
Sets 00:27:00 0° 136° (SE) 4,363 10.0 25.3°
